Back to catalog

DELTA 4 R/B

AliveMEO
NORAD 39534·ROCKET BODY·🇺🇸 United States

Launched Feb 21, 2014 from Cape Canaveral Space Force Station

Loading…

Next Passes (next 24 hours)

TLE

FreshSource: Space-Track

Epoch: Sep 11, 2026, 09:18 UTC

1 39534U 14008B   26254.38779508 -.00000001  00000-0  00000+0 0  9994
2 39534  53.0473 163.1325 0203381 111.6488 250.5625  1.90803696 87502

Track DELTA 4 R/B in real time with AllMySat

Download on the App Store